{"data":{"norad_id":61947,"intl_designator":"2024-209J","name":"STARLINK-11390 [DTC]","alt_names":[],"object_type":"PAYLOAD","status":"ACTIVE","operator":null,"country":"US","launch_date":"2024-11-14","launch_site_code":"AFWTR","launch_vehicle":null,"mission":null,"orbit_class":"UNKNOWN","rcs_meters":null,"size_class":null,"mass_kg":null,"dimensions":null,"purposes":["comms"],"wikipedia_slug":null,"has_3d_model":false,"image_url":null,"decayed_at":null,"tle_current":{"epoch":"2026-09-21T21:30:56.441376Z","epoch_age_seconds":64989,"freshness":"FRESH","line1":"1 61947U 24209J   26264.89648659  .00149882  00000+0  12192-2 0  9997","line2":"2 61947  53.1567 124.0863 0000863  99.4987 260.6128 15.69720368107531","mean_motion":15.69720368,"eccentricity":8.63e-5,"inclination_deg":53.1567,"raan_deg":124.0863,"arg_perigee_deg":99.4987,"mean_anomaly_deg":260.6128,"bstar":0.0012192,"rev_number":10753,"period_min":91.736084296002,"perigee_km":359.11560625453,"apogee_km":360.27855641696,"semimajor_km":6737.8340813357,"source":"CELESTRAK","updated_at":"2026-09-22T09:00:49.455180Z"}}}